Wind_Speed
12 13 12 12 12 11 9 8 7 5 5 2 1 2 3 4 3 3 4 5 5 6 6 5 5 5 5 5 5 4 4 4 4 4 4 4 4 4 4 4 4 4 3 3
14 13 12 13 12 12 10 9 8 7 6 5 3 3 3 3 3 2 2 3 4 4 5 4 4 4 4 4 3 3 3 3 3 3 3 3 4 4 4 3 3 3 3 3
13 12 13 13 12 11 11 9 8 8 8 7 6 4 4 4 3 3 2 2 2 4 4 3 3 3 4 4 3 3 3 3 3 3 3 3 4 4 4 4 4 4 4 3
14 13 13 14 12 10 10 10 8 7 8 8 8 6 4 5 4 5 5 3 3 4 4 3 3 4 4 4 3 3 4 4 4 3 4 4 4 4 4 4 4 4 4 4
16 15 15 15 13 12 10 10 9 9 9 9 9 8 6 7 7 7 6 5 5 5 5 5 5 5 5 5 5 4 4 4 4 4 4 4 4 5 5 5 5 5 5 5
17 16 16 15 14 13 12 11 10 10 10 10 9 9 8 9 8 8 7 7 6 6 6 6 7 7 6 6 5 5 4 4 5 5 5 5 6 6 6 6 7 7 6 7
17 17 16 15 15 14 13 12 12 12 12 12 11 11 10 10 10 9 9 8 7 7 8 8 8 8 8 8 7 6 6 6 7 7 7 7 7 8 8 8 8 9 8 9
17 16 17 16 15 14 13 13 13 13 14 13 13 12 11 11 10 10 10 9 9 9 9 9 9 9 9 9 8 8 8 8 9 9 9 9 9 10 10 10 10 11 11 12
17 17 18 18 17 16 15 15 14 14 13 14 14 13 11 11 10 11 10 10 10 10 10 10 10 11 11 11 11 10 10 11 11 10 10 10 11 12 12 12 12 13 13 14
18 18 18 19 19 19 18 17 16 16 16 16 15 13 13 12 12 12 12 12 12 12 12 12 12 12 12 13 13 13 12 12 12 12 12 12 13 13 14 14 14 15 16 16
19 19 19 20 20 20 20 19 19 19 19 18 17 15 14 14 14 14 14 14 14 14 14 14 14 14 14 14 14 15 15 15 14 14 14 14 15 15 16 16 16 17 17 17
19 20 20 21 21 22 22 21 21 21 20 20 19 17 16 16 16 16 16 15 15 16 16 15 15 15 16 16 16 16 16 16 15 15 16 16 17 16 17 16 16 17 18 17
20 20 20 21 22 23 24 23 23 22 22 21 21 19 18 18 18 18 17 16 17 17 17 16 17 17 17 17 17 17 17 17 17 17 17 17 17 17 18 18 18 17 18 19
22 23 22 22 22 23 24 24 24 25 25 24 23 21 19 19 19 19 18 17 17 17 17 18 18 17 17 17 18 18 19 18 18 18 18 18 18 18 18 18 18 19 20 21
25 25 24 23 23 23 24 25 25 25 26 26 24 23 20 20 19 19 18 17 18 19 19 19 18 18 17 18 19 20 21 20 20 20 20 20 20 19 19 20 20 20 21 22
26 27 26 26 25 25 25 24 24 25 26 26 25 23 21 21 21 20 20 19 20 20 20 20 21 20 19 20 20 21 21 22 22 23 22 22 21 21 21 22 21 22 22 23
28 29 29 28 27 26 26 24 25 25 25 25 26 25 25 24 24 23 22 22 21 21 21 22 22 22 21 22 22 22 21 22 23 23 23 23 23 23 23 23 23 24 24 25
30 30 30 29 28 29 26 25 25 26 26 26 26 25 26 26 25 24 24 24 23 22 22 23 23 23 23 24 23 23 23 23 23 23 24 25 25 25 26 26 26 27 27 27
31 30 30 29 29 28 26 25 26 26 25 24 25 26 26 26 26 25 25 25 24 24 24 24 24 24 25 25 25 25 24 24 24 24 25 25 26 27 27 27 28 28 28 28
31 30 30 29 29 29 27 26 25 26 26 25 26 26 26 26 25 24 25 25 25 25 25 25 25 25 25 26 26 26 26 26 26 26 26 27 28 28 29 29 29 29 29 29
31 31 30 30 30 29 28 27 27 27 26 25 25 25 26 26 25 25 25 26 26 25 25 25 25 26 26 27 27 27 27 28 28 28 29 29 29 29 29 29 29 29 29 30
31 31 31 31 30 29 28 28 29 28 27 26 26 26 26 26 26 25 26 26 26 26 26 26 26 27 27 27 28 28 28 29 29 30 30 31 31 31 31 30 30 31 31 32
31 31 31 31 30 29 29 29 29 29 28 28 27 26 26 26 26 26 26 26 26 27 27 27 27 27 27 28 28 29 29 30 30 31 31 32 32 32 33 32 32 32 33 33
31 30 30 30 30 29 29 29 29 28 27 27 27 27 27 27 26 26 27 27 27 27 27 27 28 28 28 28 29 29 29 30 31 32 33 33 33 33 33 33 33 33 33 33
30 30 31 31 30 30 29 30 29 28 28 27 28 28 28 28 28 28 28 28 28 28 28 28 29 29 29 29 29 30 30 30 31 31 32 32 32 32 33 33 34 34 34 34
30 30 30 30 31 31 30 30 30 28 28 28 28 28 28 28 28 27 27 28 28 28 28 29 29 29 30 30 29 29 30 30 31 31 31 32 32 33 33 34 34 34 34 34
Wind_Direction
216 214 216 220 218 217 224 232 234 242 245 254 295 356 7 3 7 35 39 33 34 35 30 31 33 34 34 32 33 34 35 37 37 33 34 36 31 34 41 41 36 31 33 30
222 219 222 225 223 224 228 230 234 240 246 254 280 302 325 325 338 352 13 12 10 16 9 22 26 20 17 17 10 3 7 8 20 23 16 13 13 16 13 10 3 4 5 359
221 218 225 225 222 224 230 236 241 249 255 259 271 283 296 304 313 314 315 332 351 357 354 5 4 359 358 3 357 344 344 352 1 2 359 351 348 349 348 352 348 342 337 340
217 217 223 221 220 227 237 240 243 251 256 264 267 276 287 297 295 290 298 304 319 320 321 316 312 313 323 333 336 340 347 349 348 344 332 326 328 331 331 332 334 328 319 316
219 219 221 219 221 225 231 239 245 248 256 266 269 272 282 286 285 287 289 289 299 296 296 293 297 297 298 307 314 317 314 317 318 317 311 309 309 312 313 311 312 312 305 302
222 222 224 223 225 231 234 240 244 250 259 266 274 276 279 283 281 283 286 287 290 287 282 285 291 295 294 295 301 304 296 301 305 306 301 297 294 295 298 299 299 302 301 298
223 222 223 224 228 232 237 240 247 252 260 268 276 276 279 281 281 285 285 286 284 282 283 284 286 289 289 286 293 297 290 291 294 296 295 294 292 289 292 292 290 290 292 293
222 219 221 223 228 232 236 241 249 257 263 265 272 277 279 282 282 285 285 285 281 280 282 282 281 281 283 283 285 284 285 286 287 287 289 292 290 288 289 288 286 286 287 289
225 224 225 225 228 233 237 244 250 257 262 266 271 278 285 286 283 284 282 281 281 280 280 279 276 278 282 282 283 282 280 280 281 281 284 289 289 288 287 284 284 284 283 283
227 226 224 227 231 235 238 244 250 259 266 269 271 279 285 286 290 289 282 279 279 278 278 279 279 280 283 283 283 281 278 277 278 279 280 282 286 289 288 286 284 284 282 285
231 230 226 229 233 238 243 246 250 258 265 269 272 278 286 289 288 293 291 282 276 278 279 280 278 278 283 284 282 279 279 282 280 278 281 286 288 287 288 287 284 286 284 284
233 234 233 232 235 239 242 248 253 257 263 269 274 279 284 288 289 290 290 287 281 279 277 279 280 280 281 284 284 282 280 281 280 280 283 288 292 288 289 289 286 285 286 286
236 238 239 236 238 241 243 248 254 258 263 269 275 280 283 285 290 290 289 286 285 282 281 281 281 283 283 282 284 283 282 281 280 281 280 283 288 289 291 291 286 283 283 285
242 245 245 245 245 248 249 251 256 260 263 269 274 278 280 284 287 289 287 285 285 287 285 283 282 283 284 285 285 285 286 283 282 282 283 286 288 290 291 293 291 285 284 285
246 248 249 250 249 250 251 252 255 260 266 269 273 276 278 282 286 287 286 282 283 286 287 285 285 286 287 288 287 287 287 284 284 284 287 288 289 290 291 292 291 289 287 286
248 250 251 252 252 252 252 254 257 261 264 268 271 274 276 277 281 283 284 283 282 283 283 285 284 284 284 286 288 288 286 283 283 284 286 287 287 289 290 291 290 289 290 289
249 251 252 252 251 252 252 254 258 261 265 268 270 273 274 276 280 281 282 284 283 283 281 282 285 285 285 286 288 289 286 285 285 285 285 285 286 287 288 290 289 288 289 289
249 252 253 253 252 253 256 257 259 262 264 267 270 272 274 275 278 277 279 281 281 281 285 286 286 287 287 287 288 289 288 286 285 286 286 285 286 285 287 287 287 287 288 289
248 252 254 254 254 256 257 259 261 262 262 265 268 271 273 274 276 276 278 280 281 281 284 286 286 285 285 286 288 288 289 288 287 286 286 286 285 285 285 286 287 287 288 288
247 248 251 254 256 259 259 260 262 261 261 264 268 271 273 275 275 277 280 280 280 281 283 285 285 286 285 286 287 287 288 289 290 288 285 285 284 283 284 284 285 286 287 287
245 247 249 253 256 259 261 263 264 263 264 266 269 271 274 274 276 276 276 277 278 280 282 284 286 286 287 287 288 288 287 288 288 287 285 284 284 284 284 284 285 285 285 286
245 247 249 252 255 258 261 263 264 265 265 267 269 271 273 276 277 276 275 276 277 279 281 283 285 286 287 288 289 288 288 286 286 286 286 284 283 282 284 284 283 284 285 285
248 248 249 251 254 257 259 262 265 265 267 269 270 271 272 275 277 276 275 275 275 278 281 282 284 286 288 288 288 288 287 286 286 286 286 286 284 283 283 284 283 282 284 283
248 249 250 251 252 254 257 261 263 264 267 269 270 271 273 273 273 274 274 274 275 276 278 281 283 286 287 287 287 287 286 286 286 286 286 286 287 287 285 284 283 283 283 283
247 249 250 252 253 254 256 259 261 263 266 268 269 270 272 271 272 273 273 273 274 276 279 281 284 285 286 287 288 288 288 287 288 287 287 286 286 286 285 285 284 285 284 283
249 250 250 252 253 254 256 258 259 261 263 266 269 271 272 271 271 272 272 273 275 276 279 282 284 285 286 287 287 288 289 290 289 288 286 286 286 285 285 285 283 283 284 285
Height
5896 5899 5900 5902 5903 5904 5904 5905 5906 5906 5906 5906 5906 5906 5905 5905 5905 5904 5903 5903 5901 5900 5899 5898 5897 5897 5896 5895 5894 5893 5893 5892 5891 5891 5890 5889 5888 5888 5887 5886 5886 5885 5884 5884
5896 5897 5899 5900 5901 5902 5904 5904 5905 5906 5905 5905 5905 5905 5905 5905 5905 5904 5904 5903 5902 5901 5900 5899 5898 5897 5896 5895 5894 5894 5893 5892 5891 5891 5890 5889 5889 5888 5887 5886 5885 5885 5884 5884
5894 5896 5896 5898 5900 5901 5902 5903 5904 5905 5905 5905 5905 5905 5905 5905 5904 5904 5903 5903 5902 5901 5900 5899 5898 5897 5896 5895 5894 5894 5893 5892 5891 5891 5890 5889 5888 5887 5887 5886 5885 5885 5884 5883
5892 5894 5895 5897 5898 5900 5901 5902 5902 5903 5904 5904 5905 5904 5905 5904 5904 5903 5903 5902 5901 5900 5899 5898 5898 5897 5896 5895 5894 5893 5893 5892 5891 5890 5889 5889 5888 5887 5886 5885 5885 5884 5883 5882
5890 5892 5894 5895 5897 5898 5900 5900 5901 5901 5902 5903 5903 5903 5904 5903 5902 5902 5901 5901 5900 5899 5898 5897 5897 5896 5895 5894 5893 5892 5892 5891 5890 5889 5889 5888 5887 5886 5885 5884 5884 5883 5882 5881
5888 5890 5892 5894 5895 5896 5898 5899 5899 5900 5900 5901 5901 5901 5902 5901 5901 5900 5900 5899 5899 5898 5897 5896 5895 5894 5894 5893 5892 5891 5890 5890 5889 5888 5887 5886 5885 5885 5884 5883 5882 5881 5880 5880
5886 5888 5890 5892 5893 5895 5896 5898 5898 5898 5898 5899 5899 5899 5900 5900 5899 5899 5898 5898 5897 5896 5895 5894 5893 5893 5892 5891 5890 5889 5888 5888 5887 5886 5885 5884 5883 5883 5882 5881 5880 5879 5879 5878
5883 5885 5887 5889 5891 5892 5893 5895 5896 5896 5896 5897 5897 5896 5898 5898 5897 5896 5896 5896 5895 5894 5893 5892 5892 5891 5890 5889 5888 5887 5886 5885 5885 5884 5883 5882 5881 5880 5879 5878 5878 5877 5876 5875
5880 5883 5885 5886 5888 5890 5891 5892 5893 5894 5894 5894 5894 5895 5895 5895 5895 5894 5894 5893 5893 5892 5891 5890 5889 5889 5888 5887 5886 5885 5884 5883 5882 5881 5880 5879 5878 5877 5876 5875 5874 5874 5873 5872
5877 5880 5882 5883 5885 5886 5888 5889 5890 5891 5891 5891 5891 5892 5893 5892 5892 5892 5891 5891 5890 5889 5889 5888 5887 5886 5885 5884 5883 5882 5881 5880 5879 5878 5877 5876 5875 5874 5873 5872 5871 5870 5869 5869
5874 5877 5879 5880 5881 5883 5884 5886 5886 5887 5888 5888 5888 5891 5890 5889 5889 5888 5888 5887 5887 5886 5885 5884 5883 5883 5882 5881 5879 5878 5877 5876 5875 5874 5873 5872 5871 5870 5869 5867 5867 5865 5865 5864
5870 5873 5874 5876 5878 5879 5880 5882 5883 5884 5884 5884 5884 5888 5886 5885 5885 5885 5884 5883 5883 5882 5881 5881 5880 5879 5878 5877 5876 5874 5873 5872 5871 5870 5869 5868 5867 5865 5864 5863 5862 5861 5860 5859
5866 5868 5870 5872 5875 5875 5875 5877 5878 5879 5880 5879 5880 5884 5881 5881 5881 5880 5880 5879 5878 5878 5877 5877 5876 5875 5873 5872 5871 5870 5869 5868 5866 5865 5864 5863 5862 5861 5860 5858 5857 5856 5855 5854
5862 5863 5866 5868 5869 5870 5871 5873 5873 5874 5874 5875 5876 5877 5877 5876 5876 5875 5875 5875 5874 5873 5873 5872 5871 5870 5869 5868 5867 5866 5864 5863 5861 5860 5859 5858 5857 5856 5855 5854 5852 5851 5850 5849
5856 5858 5860 5862 5864 5865 5867 5868 5868 5869 5869 5870 5871 5871 5871 5871 5871 5870 5870 5870 5869 5869 5867 5866 5865 5864 5864 5863 5862 5861 5859 5858 5857 5855 5854 5853 5852 5850 5849 5848 5847 5845 5844 5843
5850 5852 5854 5856 5858 5860 5861 5862 5863 5864 5864 5865 5865 5866 5866 5865 5865 5865 5865 5864 5864 5863 5862 5861 5860 5859 5858 5857 5857 5855 5854 5853 5851 5850 5848 5847 5846 5844 5843 5842 5841 5839 5838 5836
5844 5846 5848 5850 5852 5853 5855 5857 5858 5858 5859 5860 5860 5861 5860 5860 5860 5860 5859 5859 5858 5857 5856 5855 5854 5853 5852 5851 5850 5849 5848 5846 5845 5844 5842 5841 5840 5838 5837 5836 5834 5833 5832 5830
5838 5840 5841 5843 5846 5846 5852 5852 5852 5852 5853 5854 5854 5854 5854 5854 5854 5854 5853 5852 5852 5851 5850 5849 5848 5846 5845 5844 5843 5842 5841 5840 5838 5837 5835 5834 5833 5832 5831 5829 5828 5826 5825 5823
5831 5833 5835 5836 5838 5840 5843 5845 5845 5846 5847 5848 5848 5848 5848 5847 5847 5847 5846 5846 5845 5844 5843 5842 5841 5839 5838 5837 5836 5835 5834 5832 5831 5830 5828 5827 5826 5825 5824 5822 5820 5819 5817 5815
5824 5826 5828 5830 5831 5833 5837 5838 5838 5840 5841 5842 5841 5841 5841 5840 5841 5841 5840 5839 5838 5838 5836 5835 5834 5832 5831 5830 5828 5827 5826 5825 5823 5822 5821 5819 5818 5817 5816 5814 5813 5811 5810 5807
5816 5819 5821 5823 5824 5826 5829 5830 5832 5834 5835 5835 5834 5834 5834 5833 5834 5834 5833 5832 5832 5831 5830 5828 5827 5826 5824 5823 5821 5820 5818 5817 5815 5814 5812 5811 5809 5808 5807 5806 5804 5803 5801 5799
5809 5811 5814 5816 5817 5821 5822 5823 5825 5826 5826 5827 5827 5827 5827 5827 5827 5826 5826 5825 5825 5824 5823 5821 5820 5819 5817 5815 5813 5812 5810 5809 5807 5805 5803 5802 5800 5799 5798 5797 5795 5794 5792 5790
5801 5804 5806 5809 5812 5814 5814 5815 5816 5817 5818 5819 5819 5820 5820 5820 5819 5819 5818 5818 5817 5817 5815 5814 5813 5811 5810 5808 5806 5804 5802 5800 5798 5796 5794 5793 5791 5790 5788 5787 5786 5785 5783 5781
5794 5796 5799 5801 5803 5805 5807 5808 5809 5810 5810 5811 5811 5812 5812 5812 5812 5811 5811 5810 5809 5808 5807 5806 5805 5803 5801 5800 5798 5796 5793 5791 5789 5788 5786 5784 5782 5780 5779 5777 5776 5775 5773 5772
5786 5788 5790 5793 5795 5797 5799 5800 5801 5802 5803 5803 5804 5804 5804 5804 5804 5804 5803 5803 5802 5801 5800 5798 5797 5795 5793 5791 5789 5787 5785 5782 5781 5778 5776 5774 5773 5771 5770 5768 5766 5765 5763 5761
5779 5781 5783 5785 5787 5789 5791 5792 5793 5794 5795 5795 5796 5796 5796 5795 5795 5795 5795 5794 5794 5793 5792 5790 5789 5787 5784 5782 5780 5778 5776 5773 5771 5769 5767 5765 5763 5762 5760 5759 5757 5755 5753 5752